TimeCDT,TemperatureF,Dew PointF,Humidity,Sea Level PressureIn,VisibilityMPH,Wind Direction,Wind SpeedMPH,Gust SpeedMPH,PrecipitationIn,Events,Conditions,WindDirDegrees,DateUTC
12:53 AM,71.1,59.0,66,29.99,10.0,East,4.6,-,N/A,,Clear,100,2013-07-12 05:53:00
1:53 AM,70.0,60.1,71,29.99,10.0,East,5.8,-,N/A,,Clear,100,2013-07-12 06:53:00
2:53 AM,69.1,59.0,70,29.99,10.0,East,6.9,-,N/A,,Clear,80,2013-07-12 07:53:00
3:53 AM,69.1,60.1,73,29.99,10.0,ESE,5.8,-,N/A,,Scattered Clouds,110,2013-07-12 08:53:00
4:53 AM,70.0,60.1,71,29.99,10.0,ESE,8.1,-,N/A,,Clear,120,2013-07-12 09:53:00
5:53 AM,71.1,60.1,68,29.99,10.0,ESE,8.1,-,N/A,,Clear,110,2013-07-12 10:53:00
6:53 AM,71.1,60.1,68,30.00,10.0,ESE,10.4,-,N/A,,Clear,110,2013-07-12 11:53:00
7:53 AM,73.9,61.0,64,30.01,10.0,SE,13.8,-,N/A,,Clear,130,2013-07-12 12:53:00
8:53 AM,77.0,61.0,58,30.01,10.0,ESE,16.1,-,N/A,,Clear,120,2013-07-12 13:53:00
9:53 AM,80.1,63.0,56,30.00,10.0,ESE,15.0,-,N/A,,Clear,120,2013-07-12 14:53:00
10:53 AM,84.0,64.0,51,30.00,10.0,SE,13.8,-,N/A,,Clear,130,2013-07-12 15:53:00
11:53 AM,86.0,64.9,49,29.99,10.0,SE,11.5,-,N/A,,Clear,130,2013-07-12 16:53:00
12:53 PM,89.1,66.9,48,29.99,10.0,SE,12.7,-,N/A,,Clear,140,2013-07-12 17:53:00
1:53 PM,91.0,68.0,47,29.97,10.0,ESE,17.3,23.0,N/A,,Clear,120,2013-07-12 18:53:00
2:53 PM,93.0,69.1,45,29.95,10.0,SE,17.3,23.0,N/A,,Clear,130,2013-07-12 19:53:00
3:53 PM,93.9,69.1,44,29.95,10.0,SE,16.1,21.9,N/A,,Clear,130,2013-07-12 20:53:00
4:53 PM,93.9,69.1,44,29.94,10.0,SE,16.1,-,N/A,,Clear,140,2013-07-12 21:53:00
5:53 PM,93.0,70.0,47,29.93,10.0,ESE,16.1,-,N/A,,Clear,120,2013-07-12 22:53:00
6:53 PM,91.0,69.1,48,29.92,10.0,ESE,15.0,-,N/A,,Clear,120,2013-07-12 23:53:00
7:53 PM,89.1,69.1,52,29.93,10.0,ESE,16.1,-,N/A,,Clear,120,2013-07-13 00:53:00
8:53 PM,86.0,68.0,55,29.93,10.0,ESE,8.1,-,N/A,,Clear,110,2013-07-13 01:53:00
9:53 PM,84.0,66.9,56,29.95,10.0,ESE,9.2,-,N/A,,Clear,110,2013-07-13 02:53:00
10:53 PM,82.0,66.9,60,29.95,10.0,ESE,9.2,-,N/A,,Clear,120,2013-07-13 03:53:00
11:53 PM,81.0,64.0,56,29.96,10.0,SE,9.2,-,N/A,,Clear,130,2013-07-13 04:53:00